Location: Chinna Viriv?da
(16.5281°N, 81.0493°E)
Time: 10:21:03
(UTC+00:00)

ARGOS - Pass Details

Date: 14 April 2026
Orbit: 818 x 833 km, 98.5° (Epoch: 12 May)

Event Time Altitude Azimuth Distance (km) Brightness Sun altitude
Rises 22:46:09 0° 354° (N) 3,353 6.5 -22.8°
Reaches altitude 10° 22:48:48 10° 342° (NNW) 2,417 5.6 -22.2°
Enters shadow 22:51:59 25° 309° (NW) 1,616 4.4 -21.5°
